Flag for Portugal Weather past 2 weeks in Amadora, Portugal

Now
66 °F

Thunderstorms. Passing clouds.


Feels Like: 66 °F
Forecast: 65 / 76 °F
Wind: 6 mph from Southwest

Location: Lisbon Portela Airport

Current Time: Sep 22, 2014 at 9:47:22 PM

Latest Report: Sep 22, 2014 at 9:00 PM


Visibility: N/A

Pressure: 29.95 "Hg

Humidity: 94%

Dew point: 64 °F

Location of AmadoraLocation

Historic Weather in Amadora — Graph

°F

Amadora temperature yesterday

Maximum temperature yesterday: 77 °F (at 1:00 PM)
Minimum temperature yesterday: 63 °F (at 5:00 AM)
Average temperature yesterday: 69 °F

Past Weeks' High & Low Weather Summary

 TemperatureHumidityPressure
High79 °F (Sep 9, 12:30 PM)100% (Sep 8, 4:00 AM)30.07 "Hg (Sep 8, 4:00 AM)
Low61 °F (Sep 9, 5:30 AM)51% (Sep 9, 12:30 PM)29.59 "Hg (Sep 16, 2:00 PM)
Average70 °F85%29.89 "Hg
* Reported Sep 7 8:00 PM — Sep 22 8:46 PM, Amadora, Weather by CustomWeather, © 2014

Note: Actual official high and low records may vary slightly from our data, if they occured in-between our weather recording intervals... More about our weather records

Advertising

Amadora weather history for previous 24 hours

 ConditionsComfort  
Time TempWeatherWind HumidityBarometerVisibility
8:46 PM
Sep 22
66 °FThunderstorms. Passing clouds.3 mph94%29.95 "HgN/A
8:00 PM68 °FPassing clouds.2 mph83%29.95 "HgN/A
7:30 PM68 °FPassing clouds.3 mph83%29.95 "HgN/A
7:00 PM68 °FPassing clouds.5 mph83%29.95 "HgN/A
6:30 PM68 °FPassing clouds.6 mph83%29.95 "HgN/A
6:00 PM68 °FPassing clouds.2 mph88%29.95 "HgN/A
5:30 PM66 °FPassing clouds.2 mph94%29.95 "HgN/A
5:00 PM66 °FLight rain. Passing clouds.3 mph88%29.95 "HgN/A
4:30 PM66 °FLight rain. Passing clouds.8 mph88%29.95 "HgN/A
4:00 PM68 °FMixture of precip. Scattered clouds.7 mph83%29.95 "HgN/A
3:30 PM68 °FScattered clouds.9 mph83%29.95 "HgN/A
3:00 PM66 °FThunderstorms. Broken clouds.13 mph83%29.95 "HgN/A
2:30 PM66 °FThunderstorms. Scattered clouds.9 mph88%29.98 "HgN/A
2:00 PM64 °FThunderstorms. Partly sunny.6 mph88%29.98 "Hg4 mi
1:30 PM64 °FStrong thunderstorms. Broken clouds.7 mph94%29.98 "Hg4 mi
1:00 PM72 °FBroken clouds.7 mph78%29.98 "HgN/A
12:30 PM70 °FPartly sunny.5 mph88%29.98 "HgN/A
12:00 PM68 °FSprinkles. Broken clouds.3 mph88%30.01 "Hg6 mi
11:30 AM66 °FPartly sunny.3 mph94%30.01 "Hg6 mi
11:00 AM66 °FPartly sunny.5 mph94%30.01 "Hg6 mi
10:30 AM66 °FPartly sunny.6 mph88%30.01 "Hg6 mi
10:00 AM66 °FPartly sunny.3 mph88%30.01 "Hg6 mi
9:30 AM64 °FFog.3 mph94%30.01 "HgN/A
9:00 AM64 °FFog.3 mph94%29.98 "HgN/A
8:30 AM63 °FFog.1 mph100%29.98 "HgN/A
8:00 AM61 °FFog.2 mph100%29.98 "HgN/A
7:30 AM63 °FFog.1 mph94%29.95 "HgN/A
7:00 AM63 °FPassing clouds.2 mph94%29.95 "HgN/A
6:30 AM63 °FPassing clouds.5 mph94%29.95 "HgN/A
6:00 AM64 °FPassing clouds.7 mph94%29.95 "HgN/A
5:30 AM63 °FClear.1 mph94%29.95 "Hg10 mi
5:00 AM64 °FClear.3 mph94%29.95 "Hg10 mi
4:30 AM64 °FClear.3 mph94%29.95 "Hg10 mi
4:00 AM64 °FClear.2 mph88%29.95 "Hg10 mi
3:30 AM64 °FClear.5 mph94%29.98 "Hg10 mi
3:00 AM64 °FClear.7 mph94%29.98 "Hg10 mi
2:30 AM64 °FClear.6 mph94%29.98 "Hg10 mi
2:00 AM64 °FClear.6 mph94%29.98 "Hg10 mi
1:00 AM66 °FClear.7 mph88%30.01 "Hg10 mi
12:30 AM66 °FPassing clouds.3 mph88%30.01 "HgN/A
12:00 AM66 °FPassing clouds.2 mph88%30.01 "HgN/A
11:30 PM
Sep 21
66 °FPassing clouds.2 mph88%30.01 "HgN/A
11:00 PM66 °FPassing clouds.3 mph88%30.01 "HgN/A
10:30 PM68 °FClear.5 mph83%30.01 "Hg10 mi
10:00 PM68 °FPassing clouds.3 mph83%30.01 "HgN/A
9:00 PM68 °FPassing clouds.6 mph83%29.98 "HgN/A
Weather by CustomWeather, © 2014

See weather overviewHow to use our weather pages